Flag for United Kingdom Weather past 2 weeks in Derby, England, United Kingdom

Now
59 °F

Clear.


Feels Like: 57 °F
Forecast: 57 / 74 °F
Wind: 12 mph from Northeast

Location: East Midlands

Current Time: Jul 4, 2015 at 12:27:54 AM

Latest Report: Jul 3, 2015 at 11:50 PM


Visibility: 10 mi

Pressure: 30.09 "Hg

Humidity: 88%

Dew point: 55 °F

Location of DerbyLocation

Historic Weather in Derby — Graph

°F

Derby temperature yesterday

Maximum temperature yesterday: 77 °F (at 3:20 PM)
Minimum temperature yesterday: 52 °F (at 3:50 AM)
Average temperature yesterday: 64 °F

Past Weeks' High & Low Weather Summary

 TemperatureHumidityPressure
High93 °F (Jul 1, 2:20 PM)100% (Jun 20, 9:20 AM)30.30 "Hg (Jun 20, 9:20 AM)
Low48 °F (Jun 19, 3:20 AM)33% (Jun 30, 3:50 PM)29.80 "Hg (Jun 22, 7:50 AM)
Average63 °F71%30.05 "Hg
* Reported Jun 18 11:20 PM — Jul 3 11:20 PM, Derby, Weather by CustomWeather, © 2015

Note: Actual official high and low records may vary slightly from our data, if they occured in-between our weather recording intervals... More about our weather records

Advertising

Derby weather history for previous 24 hours

 ConditionsComfort  
Time TempWeatherWind HumidityBarometerVisibility
11:20 PM
Fri, Jul 3
59 °FClear.13 mph88%30.12 "Hg10 mi
10:50 PM59 °FClear.14 mph82%30.12 "Hg10 mi
10:20 PM61 °FSunny.12 mph77%30.15 "Hg10 mi
9:50 PM61 °FSunny.13 mph72%30.15 "Hg10 mi
9:20 PM63 °FSunny.14 mph68%30.15 "Hg10 mi
8:50 PM63 °FSunny.15 mph64%30.15 "Hg10 mi
8:20 PM64 °FSunny.12 mph60%30.15 "Hg10 mi
7:50 PM66 °FSunny.15 mph56%30.18 "Hg10 mi
7:20 PM68 °FSunny.14 mph53%30.15 "Hg10 mi
6:50 PM70 °FSunny.13 mph50%30.18 "Hg10 mi
6:20 PM70 °FSunny.16 mph50%30.18 "Hg10 mi
5:50 PM72 °FSunny.14 mph50%30.18 "Hg10 mi
5:20 PM73 °FSunny.14 mph44%30.18 "Hg10 mi
4:50 PM73 °FSunny.14 mph41%30.21 "Hg10 mi
4:20 PM75 °FSunny.15 mph44%30.21 "Hg10 mi
3:50 PM75 °FSunny.13 mph44%30.21 "Hg10 mi
3:20 PM77 °FSunny.13 mph42%30.21 "Hg10 mi
2:50 PM75 °FPassing clouds.12 mph44%30.24 "HgN/A
2:20 PM75 °FSunny.12 mph41%30.24 "Hg10 mi
1:50 PM75 °FPassing clouds.9 mph41%30.24 "HgN/A
1:20 PM75 °FPassing clouds.8 mph41%30.27 "HgN/A
12:50 PM73 °FPassing clouds.7 mph47%30.27 "HgN/A
12:20 PM72 °FPassing clouds.7 mph50%30.27 "HgN/A
11:50 AM72 °FSunny.6 mph50%30.27 "Hg10 mi
11:20 AM70 °FPassing clouds.8 mph53%30.27 "HgN/A
10:50 AM68 °FSunny.6 mph56%30.30 "Hg10 mi
10:20 AM66 °FPassing clouds.6 mph60%30.30 "HgN/A
9:50 AM66 °FPassing clouds.5 mph68%30.30 "HgN/A
9:20 AM64 °FPassing clouds.5 mph73%30.30 "HgN/A
8:50 AM63 °FPassing clouds.3 mph77%30.30 "HgN/A
8:20 AM61 °FPassing clouds.2 mph83%30.30 "HgN/A
7:50 AM61 °FPassing clouds.2 mph83%30.30 "HgN/A
7:20 AM59 °FClear.2 mph88%30.30 "Hg5 mi
6:50 AM57 °FFog.No wind88%30.30 "HgN/A
6:20 AM54 °FFog.5 mph94%30.30 "HgN/A
5:20 AM52 °FFog.3 mph100%30.30 "HgN/A
4:50 AM52 °FFog.2 mph100%30.30 "HgN/A
4:20 AM52 °FFog.No wind100%30.30 "HgN/A
3:50 AM52 °FFog.3 mph94%30.27 "HgN/A
3:20 AM54 °FClear.5 mph94%30.27 "Hg10 mi
2:50 AM54 °FPassing clouds.5 mph94%30.27 "HgN/A
2:20 AM54 °FClear.5 mph94%30.27 "Hg10 mi
1:50 AM54 °FClear.5 mph94%30.24 "Hg10 mi
1:20 AM55 °FClear.5 mph88%30.24 "Hg10 mi
12:50 AM55 °FClear.5 mph88%30.24 "Hg10 mi
12:20 AM54 °FClear.6 mph94%30.21 "Hg10 mi
Weather by CustomWeather, © 2015

See weather overviewHow to use our weather pages